Location: Cherry Springs State Park
(41.6616°N, 77.8240°W)
Time: 14:27:26
(UTC-05:00)

Daily predictions for brighter satellites

Satellite Brightness Start Highest point End
(mag) Time Altitude Azimuth Time Altitude Azimuth Time Altitude Azimuth
Meteor 1-25 Rocket 4.2 18:13:17 10° S 18:18:53 76° E 18:24:34 10° NNE
Okean 1 3.6 18:15:33 10° N 18:19:30 46° E 18:23:25 10° SSE
Cosmos 1812 2.7 18:16:27 10° N 18:20:19 77° E 18:24:10 10° SSE
Cosmos 1633 3.7 18:18:04 10° SE 18:21:04 24° E 18:24:04 10° NE
Cosmos 1536 Rocket 4.0 18:17:56 10° N 18:22:12 43° ENE 18:26:27 10° SSE
Cosmos 1818 3.6 18:19:39 10° SSW 18:25:03 72° ESE 18:30:31 10° NE
Cosmos 407 Rocket 3.5 18:21:21 10° SSW 18:26:35 81° ESE 18:31:56 10° NNE
Cosmos 2360 Rocket 2.6 18:22:02 10° NNW 18:27:26 43° ENE 18:32:47 10° SE
Cosmos 2219 Rocket 3.9 18:25:43 10° NNE 18:28:31 14° NE 18:31:19 10° ENE
Cosmos 2219 4.5 18:25:24 10° SE 18:29:24 20° E 18:33:25 10° NE
Cosmos 676 Rocket 4.0 18:26:04 10° S 18:31:09 61° ESE 18:36:18 10° NNE
DNEPR-1 R/B 3.9 18:27:17 10° NW 18:31:30 68° WSW 18:35:45 10° SSE
Nadezhda 1 Rocket 4.2 18:32:10 10° N 18:38:14 74° W 18:44:16 10° S
Meteor 1-11 Rocket 4.2 18:33:31 10° SSE 18:38:52 41° E 18:44:21 10° NNE
Cosmos 1461 3.8 18:40:18 10° NW 18:44:12 51° WSW 18:48:11 10° SSE
DELTA 2 R/B (1) 4.0 18:39:43 10° W 18:45:14 58° SSW 18:50:43 10° ESE
Cosmos 1140 Rocket 3.6 18:41:20 10° S 18:46:15 50° ESE 18:51:14 10° NNE
Cosmos 1602 3.8 18:45:37 10° S 18:49:23 52° E 18:53:11 10° NNE
Resurs 01 Rocket 2.3 18:45:42 10° SE 18:49:40 34° ENE 18:53:38 10° N
Cosmos 1300 Rocket 3.7 18:46:37 10° S 18:50:54 52° E 18:55:14 10° NNE
Cosmos 2292 Rocket 4.4 18:48:44 10° S 18:53:53 89° ESE 19:00:55 10° N
Cosmos 614 Rocket 4.2 18:49:21 10° S 18:54:09 44° ESE 18:58:57 10° NNE
COSMO-SKYMED 1 4.0 18:51:18 10° N 18:55:23 41° WNW 18:59:27 10° SW
Abrixas rocket 3.9 18:53:34 10° S 18:56:00 19° SE 18:56:52 17° ESE
Cosmos 1833 4.2 18:50:28 10° SSW 18:56:10 78° ESE 19:01:50 10° NNE
ALOS 2.3 18:53:02 10° SSE 18:57:35 55° ENE 19:02:10 10° N
Cosmos 2181 Rocket 4.0 18:52:00 10° N 18:58:16 70° E 19:04:34 10° SSE
Spot 2 Rocket 3.7 18:57:11 10° SE 19:02:00 47° ENE 19:06:51 10° N
USA 229 DEB 4.3 18:55:29 10° NNW 19:02:06 39° NE 19:07:02 18° ESE
USA 229 4.3 18:55:35 10° NNW 19:02:12 39° NE 19:07:06 18° ESE
Cosmos 2333 Rocket 3.6 18:58:12 10° N 19:02:24 20° NE 19:04:11 18° ENE
SL-16 R/B 3.7 18:58:51 10° NW 19:04:04 39° WSW 19:09:17 10° S
Cosmos 2208 Rocket 4.4 18:59:24 10° N 19:04:37 44° ENE 19:09:45 10° SE
FREGAT/IRIS 2.9 19:02:11 10° S 19:05:15 69° WSW 19:08:20 10° NNW
Helios 1A 4.0 19:04:17 21° E 19:05:46 26° ENE 19:09:13 10° NNE
NOSS 8 (E) 4.5 19:03:02 10° SSW 19:06:27 62° ESE 19:09:17 16° NE
Cosmos 1340 2.9 19:02:54 10° NNW 19:06:42 74° W 19:10:28 10° S
Resurs 1-3 3.9 19:03:21 10° SE 19:07:30 43° ENE 19:11:40 10° N
Cosmos 1709 Rocket 4.2 19:07:05 10° SSW 19:13:18 75° W 19:19:29 10° N
Cosmos 1850 Rocket 4.1 19:08:13 10° S 19:13:22 56° ESE 19:18:36 10° NNE
Cosmos 2074 Rocket 4.2 19:07:29 10° SSE 19:13:25 48° E 19:19:24 10° NNE
Cosmos 2184 Rocket 4.2 19:10:21 10° SSE 19:16:22 49° E 19:22:21 10° NNE
Helios 1B rocket 3.2 19:14:28 10° NE 19:18:13 30° E 19:21:49 10° SSE
Envisat 4.1 19:18:30 23° ENE 19:18:32 23° ENE 19:22:27 10° NNE
FengYun 1-2 T 4.1 19:14:11 10° SSE 19:19:40 85° ENE 19:25:12 10° NNW
Cosmos 2322 Rocket 4.4 19:15:42 10° NW 19:20:21 27° WSW 19:25:00 10° SSW
NOSS 8 (H) 4.4 19:17:12 10° SSW 19:20:32 62° ESE 19:21:51 34° NE
Okean 2 4.1 19:18:22 10° NNE 19:22:00 32° ENE 19:22:00 32° ENE
HJ-1C 3.5 19:19:02 10° S 19:22:24 75° WSW 19:25:47 10° NNW
SJ-6B 3.9 19:19:54 10° S 19:23:47 47° W 19:27:36 10° NNW
Tiangong 2 3.7 19:22:43 10° WSW 19:24:41 16° SSW 19:26:31 11° S
Okean 1 Rocket 3.1 19:21:12 10° S 19:25:41 85° W 19:30:12 10° N
SAR-Lupe-1 4.5 19:26:19 40° ENE 19:26:19 40° ENE 19:29:31 10° N
Meteor 1-5 Rocket 4.4 19:20:45 10° S 19:26:31 54° E 19:32:15 10° NNE
Genesis I 3.1 19:22:49 10° NNW 19:26:45 68° NE 19:28:05 38° SE
FENGYUN 3A 3.7 19:22:05 10° S 19:27:30 81° WSW 19:32:58 10° NNW
Meteor 1-19 Rocket 4.5 19:22:53 10° NNW 19:28:34 72° W 19:34:18 10° S
SAR-Lupe-4 3.5 19:30:26 50° ESE 19:30:57 56° ENE 19:34:29 10° N
Nadezhda 3 Rocket 4.5 19:30:06 10° N 19:35:42 35° ENE 19:36:37 34° E
Gbstr 26 Del rocket 2.6 19:32:05 10° WSW 19:35:53 75° NW 19:36:52 46° NE
Cosmos 2322 4.2 19:31:19 10° NNW 19:36:57 61° WSW 19:42:33 10° S
Cosmos 1238 Rocket 4.2 19:35:05 10° NNW 19:37:42 28° W 19:40:18 10° SSW
Cosmos 2285 Rocket 4.0 19:38:00 10° NNW 19:44:25 64° ENE 19:47:50 28° SE
GEOS 3 Rocket 3.7 19:39:42 12° NNE 19:44:37 78° NW 19:49:54 10° SW
CZ-2D R/B 3.1 19:43:32 36° SSE 19:45:00 88° WSW 19:48:50 10° NNW
Cosmos 2154 Rocket 4.3 19:39:26 10° SSE 19:45:21 43° E 19:51:18 10° NNE
Cosmos 1025 Rocket 2.9 19:41:01 10° N 19:45:26 89° E 19:48:41 18° S
GPS 2-04 Rocket1 4.0 19:42:50 10° SW 19:46:30 29° S 19:46:30 29° S
Cosmos 405 Rocket 4.1 19:42:44 10° N 19:45:01 29° NNE 19:45:01 29° NNE
H-2A R/B 3.3 19:46:41 10° S 19:50:18 54° W 19:54:00 10° NNW
Meteor 2-13 Rocket 4.3 19:45:17 10° S 19:51:12 61° E 19:57:13 10° NNE
Cosmos 1536 3.7 19:47:31 10° SSW 19:51:23 49° W 19:55:16 10° N
Okean 1-7 Rocket 4.2 19:47:09 10° NNW 19:51:37 58° W 19:56:00 10° S
Meteor 1-23 Rocket 4.3 19:46:30 10° NNW 19:52:20 78° W 19:58:03 10° S
COSMOS 2428 2.6 19:46:39 10° NNW 19:52:22 87° WSW 19:55:38 27° SSE
Cosmos 2237 4.5 19:46:54 10° NNW 19:52:37 69° WSW 19:57:28 14° S
Cosmos 2333 4.1 19:47:59 10° NNW 19:53:46 85° ENE 19:56:21 35° SSE
Meteor 2-4 Rocket 4.2 19:49:11 10° NNW 19:54:38 59° W 19:59:55 10° S
Cosmos 2237 Rocket 2.9 19:51:13 10° N 19:55:53 35° NE 19:55:53 35° NE
NOSS 0 Rocket 3.8 20:01:57 10° NNW 20:08:03 61° ENE 20:08:25 60° ENE
Cosmos 2360 Rocket 4.1 20:06:29 10° NW 20:11:11 27° WSW 20:15:52 10° SSW
Cosmos 2219 3.7 20:07:22 10° SW 20:13:02 60° WNW 20:18:44 10° NNE
Cosmos 2219 Rocket 2.0 20:07:47 10° NNW 20:13:25 79° ENE 20:13:35 78° E
Resurs 01 Rocket 4.0 20:22:45 10° SW 20:26:11 22° W 20:29:39 10° NW
SL-16 R/B 3.9 20:24:56 10° N 20:27:20 21° NNE 20:27:20 21° NNE
BREEZE-M DEB (TANK) 4.2 20:30:01 10° WNW 20:34:00 73° SSW 20:35:01 63° SSE
Cosmos 2333 Rocket 2.7 20:41:29 10° NNW 20:46:13 58° WNW 20:46:13 58° WNW
USA 229 DEB 4.4 20:46:23 10° NW 20:53:16 52° WSW 20:54:32 47° SSW
USA 229 4.3 20:46:29 10° NW 20:53:22 52° WSW 20:54:36 47° SSW
Envisat 4.4 20:58:42 36° WNW 20:58:42 36° WNW 21:02:07 10° NNW
NOSS 3-1 (A) 4.2 20:58:39 10° NNW 21:04:58 63° N 21:04:58 63° N
ATLAS 2AS CENTAUR R/B 4.2 21:04:46 10° NNW 21:10:18 30° NNE 21:10:18 30° NNE
NOSS 3-1 (C) 4.4 21:18:11 10° NW 21:24:23 60° WNW 21:24:23 60° WNW
Cosmos 2237 Rocket 4.3 21:35:22 10° NW 21:37:44 22° WNW 21:37:44 22° WNW
